• In Netherlands
  • List of Countries
  • For 7 days
  • Water Temperature
  • Satellite Maps
  • Weather Map
  • Weather Widgets
  • user-avatar
    Login

    Hourly Weather Stepnoy Mayak

    Today, 15 August, Wednesday

    Time Temperature Precipitation Wind Pressure Humidity
    00:00 +27°C° 0 mm 3 mps 755 mmHg 38%
    01:00 +26°C° 0 mm 3 mps 755 mmHg 40%
    02:00 +25°C° 0 mm 3 mps 755 mmHg 41%
    03:00 +25°C° 0 mm 3 mps 755 mmHg 43%
    04:00 +24°C° 0 mm 3 mps 755 mmHg 44%
    05:00 +24°C° 0 mm 3 mps 755 mmHg 45%
    06:00 +24°C° 0 mm 3 mps 755 mmHg 46%
    07:00 +26°C° 0 mm 3 mps 755 mmHg 41%
    08:00 +28°C° 0 mm 4 mps 755 mmHg 37%
    09:00 +32°C° 0 mm 4 mps 755 mmHg 32%
    10:00 +33°C° 0 mm 4 mps 755 mmHg 30%
    11:00 +34°C° 0 mm 4 mps 755 mmHg 27%
    12:00 +36°C° 0 mm 4 mps 755 mmHg 24%
    13:00 +36°C° 0 mm 4 mps 755 mmHg 23%
    14:00 +36°C° 0 mm 4 mps 755 mmHg 22%
    15:00 +37°C° 0 mm 4 mps 754 mmHg 21%
    16:00 +36°C° 0 mm 4 mps 754 mmHg 22%
    17:00 +36°C° 0 mm 4 mps 754 mmHg 23%
    18:00 +35°C° 0 mm 5 mps 754 mmHg 24%
    19:00 +33°C° 0 mm 4 mps 754 mmHg 26%
    20:00 +30°C° 0 mm 4 mps 754 mmHg 29%
    21:00 +28°C° 0 mm 4 mps 754 mmHg 31%
    22:00 +28°C° 0 mm 4 mps 754 mmHg 32%
    23:00 +27°C° 0 mm 4 mps 755 mmHg 33%

    Tomorrow, 16 August, Thursday

    Time Temperature Precipitation Wind Pressure Humidity
    00:00 +27°C° 0 mm 4 mps 755 mmHg 33%
    01:00 +26°C° 0 mm 4 mps 755 mmHg 35%
    02:00 +26°C° 0 mm 4 mps 755 mmHg 36%
    03:00 +25°C° 0 mm 4 mps 754 mmHg 38%
    04:00 +25°C° 0 mm 3 mps 754 mmHg 39%
    05:00 +25°C° 0 mm 3 mps 754 mmHg 41%
    06:00 +24°C° 0 mm 3 mps 754 mmHg 42%
    07:00 +27°C° 0 mm 3 mps 754 mmHg 38%
    08:00 +29°C° 0 mm 3 mps 755 mmHg 33%
    09:00 +33°C° 0 mm 3 mps 755 mmHg 29%
    10:00 +34°C° 0 mm 4 mps 754 mmHg 26%
    11:00 +35°C° 0 mm 4 mps 754 mmHg 23%
    12:00 +37°C° 0 mm 4 mps 754 mmHg 20%
    13:00 +37°C° 0 mm 4 mps 754 mmHg 19%
    14:00 +38°C° 0 mm 4 mps 753 mmHg 18%
    15:00 +39°C° 0 mm 5 mps 753 mmHg 18%
    16:00 +37°C° 0 mm 4 mps 753 mmHg 19%
    17:00 +37°C° 0 mm 4 mps 752 mmHg 20%
    18:00 +36°C° 0 mm 4 mps 752 mmHg 21%
    19:00 +34°C° 0 mm 4 mps 752 mmHg 24%
    20:00 +31°C° 0 mm 3 mps 753 mmHg 27%
    21:00 +29°C° 0 mm 3 mps 753 mmHg 30%
    22:00 +29°C° 0 mm 3 mps 753 mmHg 32%
    23:00 +28°C° 0 mm 3 mps 753 mmHg 33%

    Day after tomorrow, 17 August, Friday

    Time Temperature Precipitation Wind Pressure Humidity
    00:00 +27°C° 0 mm 3 mps 753 mmHg 35%
    01:00 +27°C° 0 mm 3 mps 753 mmHg 36%
    02:00 +26°C° 0 mm 3 mps 753 mmHg 38%
    03:00 +26°C° 0 mm 2 mps 753 mmHg 40%
    04:00 +25°C° 0 mm 2 mps 753 mmHg 41%
    05:00 +25°C° 0 mm 2 mps 753 mmHg 43%
    06:00 +25°C° 0 mm 2 mps 753 mmHg 44%
    07:00 +27°C° 0 mm 3 mps 753 mmHg 38%
    08:00 +30°C° 0 mm 3 mps 753 mmHg 32%
    09:00 +33°C° 0 mm 4 mps 753 mmHg 26%
    10:00 +34°C° 0 mm 4 mps 753 mmHg 24%
    11:00 +36°C° 0 mm 5 mps 753 mmHg 21%
    12:00 +38°C° 0 mm 6 mps 752 mmHg 19%
    13:00 +38°C° 0 mm 6 mps 752 mmHg 18%
    14:00 +39°C° 0 mm 6 mps 751 mmHg 18%
    15:00 +39°C° 0 mm 6 mps 751 mmHg 18%
    16:00 +37°C° 0 mm 5 mps 751 mmHg 18%
    17:00 +37°C° 0 mm 5 mps 751 mmHg 19%
    18:00 +36°C° 0 mm 5 mps 751 mmHg 20%
    19:00 +34°C° 0 mm 5 mps 751 mmHg 22%
    20:00 +33°C° 0 mm 5 mps 751 mmHg 25%
    21:00 +30°C° 0 mm 4 mps 751 mmHg 27%
    22:00 +29°C° 0 mm 5 mps 751 mmHg 29%
    23:00 +29°C° 0 mm 5 mps 751 mmHg 30%

    18 August, Saturday

    Time Temperature Precipitation Wind Pressure Humidity
    00:00 +28°C° 0 mm 5 mps 751 mmHg 31%
    01:00 +28°C° 0 mm 5 mps 751 mmHg 32%
    02:00 +27°C° 0 mm 4 mps 751 mmHg 34%
    03:00 +26°C° 0 mm 4 mps 751 mmHg 35%
    04:00 +26°C° 0 mm 4 mps 751 mmHg 36%
    05:00 +26°C° 0 mm 4 mps 752 mmHg 37%
    06:00 +26°C° 0 mm 4 mps 752 mmHg 37%
    07:00 +28°C° 0 mm 4 mps 752 mmHg 34%
    08:00 +30°C° 0 mm 4 mps 752 mmHg 31%
    09:00 +33°C° 0 mm 5 mps 753 mmHg 28%
    10:00 +34°C° 0 mm 5 mps 752 mmHg 26%
    11:00 +35°C° 0 mm 5 mps 752 mmHg 24%
    12:00 +36°C° 0 mm 5 mps 752 mmHg 21%
    13:00 +36°C° 0 mm 6 mps 752 mmHg 22%
    14:00 +36°C° 0 mm 6 mps 752 mmHg 23%
    15:00 +36°C° 0 mm 6 mps 752 mmHg 24%
    16:00 +35°C° 0 mm 6 mps 752 mmHg 26%
    17:00 +34°C° 0 mm 6 mps 752 mmHg 29%
    18:00 +33°C° 0 mm 7 mps 752 mmHg 32%
    19:00 +32°C° 0 mm 6 mps 753 mmHg 36%
    20:00 +29°C° 0 mm 6 mps 753 mmHg 40%
    21:00 +28°C° 0 mm 6 mps 754 mmHg 45%
    22:00 +27°C° 0 mm 6 mps 754 mmHg 44%
    23:00 +26°C° 0 mm 6 mps 754 mmHg 43%

    19 August, Sunday

    Time Temperature Precipitation Wind Pressure Humidity
    00:00 +24°C° 0 mm 6 mps 754 mmHg 43%
    01:00 +23°C° 0 mm 6 mps 754 mmHg 43%
    02:00 +23°C° 0 mm 5 mps 754 mmHg 44%
    03:00 +22°C° 0 mm 5 mps 755 mmHg 44%
    04:00 +21°C° 0 mm 5 mps 755 mmHg 46%
    05:00 +21°C° 0 mm 5 mps 755 mmHg 47%
    06:00 +20°C° 0 mm 5 mps 755 mmHg 49%
    07:00 +22°C° 0 mm 5 mps 756 mmHg 46%
    08:00 +23°C° 0 mm 5 mps 756 mmHg 43%
    09:00 +26°C° 0 mm 6 mps 756 mmHg 40%
    10:00 +27°C° 0 mm 6 mps 756 mmHg 35%
    11:00 +29°C° 0 mm 6 mps 755 mmHg 31%
    12:00 +30°C° 0 mm 5 mps 755 mmHg 26%
    13:00 +32°C° 0 mm 5 mps 755 mmHg 25%
    14:00 +32°C° 0 mm 5 mps 755 mmHg 23%
    15:00 +32°C° 0 mm 6 mps 754 mmHg 22%
    16:00 +32°C° 0 mm 6 mps 754 mmHg 23%
    17:00 +30°C° 0 mm 6 mps 754 mmHg 23%
    18:00 +30°C° 0 mm 6 mps 754 mmHg 24%
    19:00 +28°C° 0 mm 6 mps 755 mmHg 26%
    20:00 +26°C° 0 mm 5 mps 755 mmHg 28%
    21:00 +25°C° 0 mm 5 mps 755 mmHg 30%
    22:00 +23°C° 0 mm 5 mps 755 mmHg 31%
    23:00 +22°C° 0 mm 5 mps 756 mmHg 32%

    20 August, Monday

    Time Temperature Precipitation Wind Pressure Humidity
    00:00 +21°C° 0 mm 5 mps 756 mmHg 32%
    01:00 +21°C° 0 mm 4 mps 756 mmHg 33%
    02:00 +20°C° 0 mm 4 mps 756 mmHg 35%
    03:00 +19°C° 0 mm 4 mps 755 mmHg 36%
    04:00 +19°C° 0 mm 4 mps 756 mmHg 38%
    05:00 +18°C° 0 mm 4 mps 756 mmHg 39%
    06:00 +18°C° 0 mm 4 mps 756 mmHg 40%
    07:00 +20°C° 0 mm 4 mps 756 mmHg 35%
    08:00 +23°C° 0 mm 4 mps 756 mmHg 31%
    09:00 +26°C° 0 mm 5 mps 756 mmHg 26%
    10:00 +27°C° 0 mm 5 mps 756 mmHg 24%
    11:00 +28°C° 0 mm 5 mps 756 mmHg 22%
    12:00 +30°C° 0 mm 5 mps 756 mmHg 19%
    13:00 +30°C° 0 mm 5 mps 755 mmHg 19%
    14:00 +32°C° 0 mm 5 mps 755 mmHg 18%
    15:00 +32°C° 0 mm 5 mps 755 mmHg 18%
    16:00 +32°C° 0 mm 5 mps 755 mmHg 19%
    17:00 +30°C° 0 mm 4 mps 755 mmHg 20%
    18:00 +30°C° 0 mm 4 mps 755 mmHg 21%
    19:00 +28°C° 0 mm 4 mps 755 mmHg 24%
    20:00 +26°C° 0 mm 4 mps 755 mmHg 26%
    21:00 +24°C° 0 mm 3 mps 755 mmHg 29%
    22:00 +22°C° 0 mm 3 mps 755 mmHg 30%
    23:00 +21°C° 0 mm 3 mps 755 mmHg 31%
    Show more